Regional Weather Roundup
Issued by NWS

Home | Current Version | Previous Version | Graphics & Text | Print | Product List | Glossary On
Versions: 1 2 3 4 5 6 7 8 9 10 11 12 13 14 15 16 17 18 19 20 21 22 23 24 25 26 27 28 29 30 31 32 33 34 35 36 37 38 39 40 41 42 43 44 45 46 47 48 49 50
000
ASUS43 KIND 220509
RWRIN

WEATHER ROUNDUP FOR INDIANA
NATIONAL WEATHER SERVICE INDIANAPOLIS IN
100 AM EDT TUE JUL 22 2014

NOTE: "FAIR" INDICATES FEW OR NO CLOUDS BELOW 12,000 FEET WITH NO
SIGNIFICANT WEATHER AND/OR OBSTRUCTIONS TO VISIBILITY.

* - STATION DOES NOT REPORT WEATHER SUCH AS PRECIPITATION OR FOG.

+ - STATION NOT QUALITY CONTROLLED BY THE NATIONAL WEATHER SERVICE.
    USE DATA WITH CAUTION...ESPECIALLY DEWPOINT AND RELATIVE
    HUMIDITY OBSERVATIONS.

INZ001>003-010>013-019-020-220600-
NORTHWEST INDIANA

CITY           SKY/WX    TMP DP  RH WIND       PRES   REMARKS
GARY /AIRPORT/ CLEAR     72  66  81 CALM      30.07S
KNOX *+        CLEAR     64  60  88 CALM      30.08S
LA PORTE +     CLEAR     65  64  97 CALM      30.09F
MICHIGAN CITY+ CLEAR     64  63  94 CALM      30.08S
MONTICELLO +   CLEAR     67  66  97 CALM      30.08F FOG
RENSSELAER +   CLEAR     63  63 100 CALM      30.09S FOG
VALPARAISO     CLEAR     70  64  81 S3        30.09S

$$

LMZ046-743>745-220600-
SOUTHERN LAKE MICHIGAN

STATION/POSITION TIME  TEMP WIND        PRES
                       AIR  DIR/SP/G
                 (UTC) (F)  (DEG/KT/KT) (MB)
BURNS HARBOR     0400   74  200/  6/  8 1019.0S
MICHIGAN CITY    0500   75  150/  8/ 10   N/A

$$

INZ004-005-014>016-021>024-220600-
NORTH CENTRAL INDIANA

CITY           SKY/WX    TMP DP  RH WIND       PRES   REMARKS
GOSHEN         CLEAR     67  64  90 CALM      30.10S
LOGANSPORT +   CLEAR     63  61  94 CALM      30.10S FOG
PERU/GRISSOM   CLEAR     69  67  93 CALM      30.10S
ROCHESTER +    CLEAR     68  63  83 CALM      30.10S
SOUTH BEND     CLEAR     70  62  76 CALM      30.09F
WARSAW +       CLEAR     64  63  94 CALM      30.10F

$$

INZ006>009-017-018-025>027-220600-
NORTHEAST INDIANA

CITY           SKY/WX    TMP DP  RH WIND       PRES   REMARKS
ANGOLA *+      CLEAR     66  64  94 CALM      30.11F
AUBURN +       CLEAR     64  61  88 CALM      30.11F
FORT WAYNE     CLEAR     69  63  81 CALM      30.11S
HUNTINGTON +   CLEAR     65  64  96 CALM      30.10F

$$

INZ028-029-035-036-043>045-051>053-220600-
WEST CENTRAL INDIANA

CITY           SKY/WX    TMP DP  RH WIND       PRES   REMARKS
GREENCASTLE +  CLEAR     64  64 100 CALM      30.11S FOG
LAFAYETTE      CLEAR     67  64  90 CALM      30.09S
TERRE HAUTE    CLEAR     66  63  90 CALM      30.09S

$$

INZ030>032-037>040-046>048-054>057-064-065-220600-
CENTRAL INDIANA

CITY           SKY/WX    TMP DP  RH WIND       PRES   REMARKS
CP ATTERBURY + FOG       64  63  94 CALM      30.11S VSB 1/2
GREENWOOD *+   CLEAR     70  68  94 CALM      30.11S
INDIANAPOLIS   CLEAR     73  63  70 CALM      30.10S
-EAGLE CREEK   CLEAR     72  65  78 CALM      30.10S
KOKOMO *+      CLEAR     64  63  94 CALM      30.11S
MARION +       CLEAR     64  62  94 CALM      30.11F
MT COMFORT *+  CLEAR     64 N/A N/A CALM      30.12R
SHELBYVILLE    CLEAR     66  62  87 CALM      30.10S
ZIONSVILLE +   CLEAR     67  63  87 CALM      30.11S FOG

$$

INZ033-034-041-042-049-050-058-059-220600-
EAST CENTRAL INDIANA

CITY           SKY/WX    TMP DP  RH WIND       PRES   REMARKS
MUNCIE         CLEAR     64  60  87 CALM      30.12S

$$

INZ060-061-067>069-081>083-085>088-220600-
SOUTHWEST INDIANA

CITY           SKY/WX    TMP DP  RH WIND       PRES   REMARKS
EVANSVILLE     CLEAR     73  67  81 CALM      30.08S
HUNTINGBURG *+ CLEAR     70  64  83 CALM      30.09S
WASHINGTON +   CLEAR     67  66  99 CALM      30.07F

$$

INZ062-063-066-070>080-084-089>092-220600-
SOUTH CENTRAL AND SOUTHEAST INDIANA

CITY           SKY/WX    TMP DP  RH WIND       PRES   REMARKS
BLOOMINGTON    CLEAR     66  63  90 CALM      30.10S FOG

$$



USA.gov is the U.S. government's official web portal to all federal, state and local government web resources and services.